Location: Weatherford
(35.5260°N, 98.7070°W)
Time: 06:09:19
(UTC-06:00)

Amateur Radio Satellites - All Passes

Search period start: 08 February 2016 05:39
Search period end: 09 February 2016 05:39
Location: Weatherford, 35.5260°N, 98.7070°W

Satellite Date Start Highest point End Downlink Frequencies (MHz)
Time Altitude Azimuth
HORYU 2 08 Feb 05:40:54 05:44:57 36° 289° (WNW) 05:49:01 437.375
AIST 2 08 Feb 05:40:59 05:44:54 43° 245° (WSW) 05:48:47 435.215
STRAND 1 08 Feb 06:01:27 06:05:17 22° 67° (ENE) 06:09:09 437.568
Cosmos 2504 08 Feb 06:02:34 06:11:00 75° 278° (W) 06:19:54 435.465 / 435.565
BRITE-PL 08 Feb 06:09:10 06:10:41 11° 89° (E) 06:12:09 437.365/2234.400
CUBESAT XI-V 08 Feb 06:09:43 06:14:02 38° 262° (W) 06:18:26 437.345
CUTE-I 08 Feb 06:16:08 06:20:57 33° 97° (E) 06:25:45 437.470
Cubesat XI-IV 08 Feb 06:28:58 06:34:07 44° 99° (E) 06:39:13 437.490
LilacSat-2 08 Feb 06:40:26 06:44:07 50° 99° (E) 06:47:48 437.200
PHONESAT 2.4 08 Feb 06:52:09 06:55:26 87° 204° (SSW) 06:58:41 2401.200-2431.200
PRISM 08 Feb 07:02:04 07:05:24 24° 70° (ENE) 07:08:46 437.425
SO-50 08 Feb 07:10:28 07:13:41 17° 313° (NW) 07:16:56 436.795
AO-7 08 Feb 07:14:51 07:15:46 10° 312° (NW) 07:16:41 29.400- 29.500
DOVE 4 08 Feb 07:15:34 07:17:40 13° 92° (E) 07:19:45 437.250
GOMX 1 08 Feb 07:22:59 07:27:06 37° 97° (E) 07:31:00 467.674
STRAND 1 08 Feb 07:39:27 07:44:10 38° 262° (W) 07:48:57 437.568
HO-68 08 Feb 07:44:11 07:49:26 21° 94° (E) 07:54:39 435.675
BRITE-PL 08 Feb 07:44:59 07:49:38 54° 286° (WNW) 07:53:56 437.365/2234.400
CUTE-I 08 Feb 07:56:22 08:00:50 28° 292° (WNW) 08:05:18 437.470
Cosmos 2504 08 Feb 08:02:20 08:05:58 13° 298° (WNW) 08:09:41 435.465 / 435.565
Cubesat XI-IV 08 Feb 08:09:53 08:13:50 21° 294° (WNW) 08:17:46 437.490
O/OREOS (USA 219) 08 Feb 08:16:42 08:20:58 45° 105° (ESE) 08:25:15 437.305
CANX-2 08 Feb 08:20:28 08:24:28 37° 98° (E) 08:28:26 2200.000
CINEMA 3 08 Feb 08:22:56 08:26:28 27° 97° (E) 08:30:01 145.822/145.860
PHONESAT 2.4 08 Feb 08:30:25 08:32:22 15° 216° (SW) 08:34:17 2401.200-2431.200
GONETS M04 08 Feb 08:36:42 08:44:07 33° 85° (E) 08:51:31
PRISM 08 Feb 08:37:20 08:40:38 23° 264° (W) 08:43:58 437.425
CUBEBUG 2 08 Feb 08:43:36 08:46:10 16° 94° (E) 08:48:45 437.445
UWE-3 08 Feb 08:49:04 08:50:56 13° 93° (E) 08:52:48 435.000/436.395/437.385
DOVE 4 08 Feb 08:51:39 08:55:35 38° 287° (WNW) 08:59:25 437.250
Oscar 11 08 Feb 08:56:56 08:59:23 15° 93° (E) 09:01:50 145.826/435.025
GOMX 1 08 Feb 09:02:10 09:04:49 16° 294° (WNW) 09:07:24 467.674
COMPASS 1 08 Feb 09:10:14 09:14:27 71° 101° (E) 09:18:40 437.405
CUTE 1.7 + AOD 2 08 Feb 09:11:17 09:15:31 59° 285° (WNW) 09:19:43 437.475
Cosmos 2499 08 Feb 09:18:23 09:25:09 27° 83° (E) 09:32:04 435.465 / 435.565
SEEDS 08 Feb 09:21:01 09:25:13 61° 285° (WNW) 09:29:24 437.485
HO-68 08 Feb 09:30:27 09:37:32 62° 289° (WNW) 09:44:35 435.675
DELFI C3 08 Feb 09:35:06 09:38:11 21° 95° (E) 09:41:15 145.870
ANTELSAT 08 Feb 09:39:39 09:43:24 29° 72° (ENE) 09:47:07 437.575/2403.000
AAUSAT CUBESAT 2 08 Feb 09:40:47 09:44:57 60° 284° (WNW) 09:49:05 437.432
ZACube-1 08 Feb 09:45:37 09:49:38 42° 99° (E) 09:53:42 437.345
TIGRISAT 08 Feb 09:47:00 09:50:56 34° 72° (ENE) 09:54:48 435.000
JUGNU 08 Feb 09:50:00 09:53:10 15° 172° (S) 09:56:19 437.505
FUNcube-1 08 Feb 09:55:35 09:59:42 53° 100° (E) 10:03:54 145.935
CANX-2 08 Feb 09:57:21 09:59:59 16° 292° (WNW) 10:02:38 2200.000
O/OREOS (USA 219) 08 Feb 09:57:59 10:00:36 15° 302° (WNW) 10:03:13 437.305
CINEMA 3 08 Feb 10:00:27 10:03:27 20° 291° (WNW) 10:06:28 145.822/145.860
POPSAT HIP 1 08 Feb 10:03:02 10:04:36 12° 66° (ENE) 10:06:11 437.405
NANOSAT C BR1 08 Feb 10:08:21 10:10:26 14° 66° (ENE) 10:12:31 145.865
DUCHIFAT 1 08 Feb 10:10:35 10:12:42 14° 67° (ENE) 10:14:48 145.980
QB50P1 08 Feb 10:14:36 10:17:19 17° 68° (ENE) 10:20:01 145.935-145.965
CUBEBUG 2 08 Feb 10:19:05 10:22:53 34° 287° (WNW) 10:26:44 437.445
HUMSAT D 08 Feb 10:20:33 10:24:12 29° 97° (E) 10:27:53 437.325/437.525
UWE-3 08 Feb 10:23:35 10:27:34 43° 286° (WNW) 10:31:36 435.000/436.395/437.385
AO-85 08 Feb 10:27:59 10:32:48 38° 112° (ESE) 10:37:50 145.980
UNISAT 6 08 Feb 10:30:30 10:34:50 67° 259° (WSW) 10:39:08 437.425
Oscar 11 08 Feb 10:31:35 10:35:39 40° 287° (WNW) 10:39:42 145.826/435.025
GONETS M04 08 Feb 10:32:18 10:40:32 47° 283° (WNW) 10:48:52
AIST 1 08 Feb 10:32:53 10:36:27 25° 89° (E) 10:40:03
PCSat 08 Feb 10:58:00 11:03:03 42° 110° (ESE) 11:08:07 145.827
POLYITAN 1 08 Feb 11:04:43 11:08:56 68° 75° (ENE) 11:13:08 437.675
QB50P2 08 Feb 11:05:26 11:09:40 71° 76° (ENE) 11:13:54 145.880/145.840
Cosmos 2499 08 Feb 11:09:05 11:17:33 61° 280° (W) 11:26:22 435.465 / 435.565
DELFI C3 08 Feb 11:09:43 11:13:01 25° 289° (WNW) 11:16:19 145.870
ANTELSAT 08 Feb 11:16:58 11:20:07 20° 265° (W) 11:23:16 437.575/2403.000
BUGSAT 1 08 Feb 11:17:48 11:21:48 43° 73° (ENE) 11:25:47 437.445
SRMSAT 08 Feb 11:23:00 11:25:42 13° 169° (S) 11:28:23 437.500
ZACube-1 08 Feb 11:23:23 11:25:34 14° 293° (WNW) 11:27:45 437.345
RS-15 08 Feb 11:23:40 11:34:00 48° 109° (ESE) 11:44:47 29.354- 29.394
TIGRISAT 08 Feb 11:24:51 11:27:41 17° 266° (W) 11:30:29 435.000
VELOX 1 08 Feb 11:28:17 11:32:12 30° 98° (E) 11:36:05 145.980
FUNcube-1 08 Feb 11:34:15 11:35:30 11° 294° (WNW) 11:36:45 145.935
POPSAT HIP 1 08 Feb 11:35:48 11:39:56 51° 260° (W) 11:44:04 437.405
JUGNU 08 Feb 11:37:50 11:41:25 17° 183° (S) 11:44:59 437.505
NANOSAT C BR1 08 Feb 11:41:44 11:45:47 44° 261° (W) 11:49:50 145.865
50 SAT 08 Feb 11:42:52 11:46:38 62° 100° (E) 11:50:25 437.505
DUCHIFAT 1 08 Feb 11:43:59 11:48:00 43° 261° (W) 11:52:02 145.980
AISAT 08 Feb 11:44:20 11:48:38 50° 100° (E) 11:52:53 437.250
Oscar 19 08 Feb 11:48:37 11:50:05 11° 62° (ENE) 11:51:32 437.125/150
QB50P1 08 Feb 11:48:55 11:52:48 35° 262° (W) 11:56:42 145.935-145.965
HUMSAT D 08 Feb 11:56:41 11:59:38 19° 291° (WNW) 12:02:36 437.325/437.525
ESTCUBE 1 08 Feb 11:59:00 12:03:35 83° 105° (ESE) 12:08:06 437.505/2401.250
UKube-1 08 Feb 12:06:54 12:11:15 82° 104° (ESE) 12:15:33 .
AO-85 08 Feb 12:08:47 12:13:25 29° 309° (NW) 12:18:11 145.980
CUBEBUG 1 08 Feb 12:09:07 12:13:30 80° 101° (E) 12:17:50 437.445
AIST 1 08 Feb 12:10:30 12:13:58 22° 284° (WNW) 12:17:27
CUSAT 1 08 Feb 12:11:12 12:13:33 13° 61° (ENE) 12:15:42 437.405
DX 1 08 Feb 12:15:51 12:20:09 65° 286° (WNW) 12:24:26 434.975-435.025
SPROUT 08 Feb 12:19:30 12:23:22 33° 98° (E) 12:27:12 437.525
DANDE 08 Feb 12:29:22 12:32:32 13° 59° (ENE) 12:35:24 436.750
JAS-2 08 Feb 12:29:25 12:35:51 30° 67° (ENE) 12:41:55 435.910
TISAT 1 08 Feb 12:36:02 12:38:50 17° 94° (E) 12:41:36 437.305
PCSat 08 Feb 12:42:10 12:46:34 25° 307° (NW) 12:50:58 145.827
BUGSAT 1 08 Feb 12:55:25 12:57:21 13° 267° (W) 12:59:16 437.445
VELOX 1 08 Feb 13:05:12 13:08:28 20° 292° (WNW) 13:11:41 145.980
SRMSAT 08 Feb 13:10:24 13:14:06 17° 179° (S) 13:17:48 437.500
AISAT 08 Feb 13:22:39 13:24:39 13° 295° (WNW) 13:26:39 437.250
Oscar 19 08 Feb 13:23:29 13:28:40 81° 257° (WSW) 13:33:53 437.125/150
SWISSCUBE 08 Feb 13:24:41 13:26:30 12° 92° (E) 13:28:19 437.505
YUBILEINY 08 Feb 13:26:33 13:31:49 17° 66° (ENE) 13:37:04 435.215
JUGNU 08 Feb 13:27:37 13:29:38 12° 192° (SSW) 13:31:39 437.505
RS-15 08 Feb 13:35:46 13:46:21 47° 310° (NW) 13:57:32 29.354- 29.394
Gurwin Techsat 1B 08 Feb 13:41:06 13:46:14 53° 73° (ENE) 13:51:24 435.225
CUSAT 1 08 Feb 13:51:07 13:56:53 64° 266° (W) 14:01:11 437.405
SPROUT 08 Feb 13:56:14 13:59:04 18° 292° (WNW) 14:01:53 437.525
ITUPSAT 1 08 Feb 13:58:42 14:02:44 26° 96° (E) 14:06:44 437.325
SO-50 08 Feb 14:02:59 14:06:58 25° 51° (NE) 14:10:51 436.795
BEESAT 08 Feb 14:08:02 14:12:23 33° 98° (E) 14:16:42 436.000
DANDE 08 Feb 14:09:49 14:16:54 85° 263° (W) 14:22:10 436.750
TISAT 1 08 Feb 14:10:51 14:14:32 31° 288° (WNW) 14:18:12 437.305
JAS-2 08 Feb 14:12:59 14:20:30 52° 260° (W) 14:27:35 435.910
AO-7 08 Feb 14:20:47 14:27:51 32° 61° (ENE) 14:34:56 29.400- 29.500
ITAMSAT 1 08 Feb 14:28:39 14:33:48 82° 76° (ENE) 14:39:02 435.822/435.867
SRMSAT 08 Feb 14:59:33 15:02:30 14° 190° (S) 15:05:27 437.500
SWISSCUBE 08 Feb 14:59:54 15:04:38 59° 286° (WNW) 15:09:20 437.505
HORYU 2 08 Feb 15:02:12 15:03:48 12° 65° (ENE) 15:05:24 437.375
YUBILEINY 08 Feb 15:20:52 15:29:46 88° 263° (W) 15:38:34 435.215
Cosmos 2491 08 Feb 15:21:28 15:29:53 56° 90° (E) 15:38:18 435.465 / 435.565
Gurwin Techsat 1B 08 Feb 15:23:17 15:26:28 16° 267° (W) 15:29:39 435.225
ITUPSAT 1 08 Feb 15:36:24 15:40:29 28° 291° (WNW) 15:44:34 437.325
SO-50 08 Feb 15:43:14 15:47:29 33° 248° (WSW) 15:51:35 436.795
BEESAT 08 Feb 15:46:17 15:49:57 22° 292° (WNW) 15:53:35 436.000
M-CUBED/EXP-1 PRIME 08 Feb 15:49:17 15:53:05 80° 253° (WSW) 15:56:38 437.505
MOZHAYETS 4 08 Feb 15:55:57 15:59:44 24° 96° (E) 16:03:31
RS-15 08 Feb 15:56:14 16:02:58 17° 341° (NNW) 16:09:54 29.354- 29.394
Cosmos 2504 08 Feb 15:59:58 16:07:44 36° 74° (ENE) 16:14:59 435.465 / 435.565
AUBIESAT-1 08 Feb 16:00:32 16:04:18 70° 253° (WSW) 16:07:49 437.475
STARS 08 Feb 16:00:45 16:04:49 38° 98° (E) 16:08:52 437.465
ISS 08 Feb 16:07:22 16:10:32 54° 136° (SE) 16:13:44 145.825
AO-7 08 Feb 16:12:03 16:20:11 54° 257° (WSW) 16:28:21 29.400- 29.500
KKS-1 08 Feb 16:13:23 16:17:49 77° 284° (WNW) 16:22:12 437.445
HORYU 2 08 Feb 16:35:31 16:39:51 56° 259° (W) 16:44:12 437.375
BRITE-PL 08 Feb 17:15:43 17:18:45 15° 64° (ENE) 17:21:44 437.365/2234.400
Cosmos 2491 08 Feb 17:19:55 17:27:04 28° 288° (WNW) 17:34:17 435.465 / 435.565
LilacSat-2 08 Feb 17:20:40 17:23:11 17° 70° (ENE) 17:25:42 437.200
YUBILEINY 08 Feb 17:20:56 17:25:10 15° 282° (WNW) 17:29:24 435.215
BEESAT 3 08 Feb 17:29:47 17:33:38 53° 116° (ESE) 17:37:32 437.485
MOZHAYETS 4 08 Feb 17:32:54 17:36:49 28° 290° (WNW) 17:40:45
CUTE-I 08 Feb 17:35:00 17:39:55 40° 71° (ENE) 17:44:53 437.470
STARS 08 Feb 17:38:07 17:40:52 17° 293° (WNW) 17:43:35 437.465
ISS 08 Feb 17:45:04 17:47:14 16° 331° (NNW) 17:49:22 145.825
Cubesat XI-IV 08 Feb 17:47:59 17:53:08 54° 73° (ENE) 17:58:20 437.490
BEESAT 2 08 Feb 17:51:15 17:55:11 59° 117° (ESE) 17:59:09 435.950
Cosmos 2504 08 Feb 17:53:13 18:01:07 43° 273° (W) 18:08:31 435.465 / 435.565
CUBESAT XI-V 08 Feb 18:08:53 18:13:35 67° 101° (E) 18:18:14 437.345
HO-68 08 Feb 18:13:06 18:15:38 12° 55° (NE) 18:18:11 435.675
RS-15 08 Feb 18:15:36 18:22:42 17° 20° (NNE) 18:29:54 29.354- 29.394
DOVE 4 08 Feb 18:18:05 18:20:40 14° 66° (ENE) 18:23:11 437.250
GOMX 1 08 Feb 18:26:59 18:31:53 35° 72° (ENE) 18:36:38 467.674
O/OREOS (USA 219) 08 Feb 18:29:24 18:33:54 54° 68° (ENE) 18:38:24 437.305
BRITE-PL 08 Feb 18:50:52 18:56:33 73° 258° (WSW) 19:02:12 437.365/2234.400
GONETS M04 08 Feb 18:52:34 18:56:05 13° 63° (ENE) 18:59:35
LilacSat-2 08 Feb 18:54:01 18:57:18 27° 263° (W) 19:00:33 437.200
AO-85 08 Feb 19:03:55 19:07:16 17° 45° (NE) 19:10:28 145.980
BEESAT 3 08 Feb 19:09:47 19:11:42 13° 312° (NW) 19:13:37 437.485
CANX-2 08 Feb 19:11:14 19:14:09 19° 69° (ENE) 19:17:04 2200.000
CUTE-I 08 Feb 19:16:04 19:20:04 22° 265° (W) 19:24:06 437.470
CINEMA 3 08 Feb 19:21:59 19:25:23 20° 69° (ENE) 19:28:41 145.822/145.860
Cubesat XI-IV 08 Feb 19:30:20 19:33:29 16° 267° (W) 19:36:41 437.490
BEESAT 2 08 Feb 19:31:45 19:33:27 12° 313° (NW) 19:35:09 435.950
AIST 2 08 Feb 19:35:12 19:39:21 80° 120° (ESE) 19:43:33 435.215
CUBESAT XI-V 08 Feb 19:49:01 19:50:21 11° 296° (WNW) 19:51:41 437.345
PCSat 08 Feb 19:49:26 19:53:20 20° 51° (NE) 19:57:14 145.827
STRAND 1 08 Feb 19:52:28 19:57:40 89° 286° (WNW) 20:02:49 437.568
DOVE 4 08 Feb 19:52:45 19:57:53 61° 260° (W) 20:02:47 437.250
HO-68 08 Feb 19:54:59 20:02:07 74° 72° (ENE) 20:09:17 435.675
COMPASS 1 08 Feb 19:58:21 20:02:00 31° 72° (ENE) 20:05:40 437.405
CUTE 1.7 + AOD 2 08 Feb 20:00:41 20:04:50 64° 76° (ENE) 20:09:01 437.475
GOMX 1 08 Feb 20:05:25 20:09:55 26° 265° (W) 20:14:18 467.674
SEEDS 08 Feb 20:09:32 20:13:37 60° 75° (ENE) 20:17:45 437.485
O/OREOS (USA 219) 08 Feb 20:11:05 20:12:46 12° 262° (W) 20:14:27 437.305
PRISM 08 Feb 20:21:04 20:25:12 58° 101° (E) 20:29:16 437.425
RS-15 08 Feb 20:27:50 20:39:27 47° 50° (NE) 20:51:09 29.354- 29.394
AAUSAT CUBESAT 2 08 Feb 20:27:52 20:31:55 57° 75° (ENE) 20:35:59 437.432
ZACube-1 08 Feb 20:39:10 20:42:30 23° 70° (ENE) 20:45:48 437.345
AO-85 08 Feb 20:43:19 20:48:17 61° 245° (WSW) 20:52:48 145.980
GONETS M04 08 Feb 20:45:33 20:54:23 76° 83° (E) 21:03:13
CANX-2 08 Feb 20:46:04 20:49:46 30° 263° (W) 20:53:30 2200.000
FUNcube-1 08 Feb 20:48:37 20:52:14 28° 71° (ENE) 20:55:48 145.935
CINEMA 3 08 Feb 20:58:03 21:02:19 33° 262° (W) 21:06:25 145.822/145.860
Cosmos 2499 08 Feb 21:05:01 21:12:55 43° 76° (ENE) 21:20:13 435.465 / 435.565
HUMSAT D 08 Feb 21:10:31 21:12:42 14° 67° (ENE) 21:14:53 437.325/437.525
CUBEBUG 2 08 Feb 21:13:40 21:18:00 63° 259° (W) 21:22:15 437.445
UWE-3 08 Feb 21:17:12 21:21:31 82° 258° (WSW) 21:25:45 435.000/436.395/437.385
AIST 2 08 Feb 21:17:44 21:18:23 10° 315° (NW) 21:19:02 435.215
Oscar 11 08 Feb 21:22:46 21:27:03 78° 258° (WSW) 21:31:22 145.826/435.025
PCSat 08 Feb 21:31:46 21:37:05 55° 248° (WSW) 21:42:20 145.827
COMPASS 1 08 Feb 21:34:51 21:37:36 17° 266° (W) 21:40:23 437.405
HO-68 08 Feb 21:45:55 21:50:22 17° 268° (W) 21:54:51 435.675
DELFI C3 08 Feb 21:52:10 21:56:06 63° 260° (W) 22:00:03 145.870
PRISM 08 Feb 21:59:26 21:59:59 10° 296° (WNW) 22:00:31 437.425
ZACube-1 08 Feb 22:15:14 22:18:41 24° 264° (W) 22:22:06 437.345
AIST 1 08 Feb 22:19:34 22:23:54 64° 83° (E) 22:28:09
50 SAT 08 Feb 22:21:11 22:23:49 19° 70° (ENE) 22:26:28 437.505
VELOX 1 08 Feb 22:23:18 22:26:33 20° 68° (ENE) 22:29:49 145.980
UNISAT 6 08 Feb 22:25:18 22:29:08 30° 98° (E) 22:33:01 437.425
FUNcube-1 08 Feb 22:25:25 22:28:28 19° 265° (W) 22:31:30 145.935
ISS 08 Feb 22:37:56 22:40:25 20° 31° (NNE) 22:42:53 145.825
AISAT 08 Feb 22:38:57 22:42:53 31° 71° (ENE) 22:46:50 437.250
RS-15 08 Feb 22:40:27 22:52:04 53° 251° (WSW) 23:03:44 29.354- 29.394
HUMSAT D 08 Feb 22:44:11 22:48:00 38° 262° (W) 22:51:48 437.325/437.525
GONETS M04 08 Feb 22:44:30 22:50:09 19° 280° (W) 22:55:50
POLYITAN 1 08 Feb 22:54:27 22:56:33 13° 93° (E) 22:58:39 437.675
QB50P2 08 Feb 22:55:00 22:57:18 14° 93° (E) 22:59:35 145.880/145.840
ESTCUBE 1 08 Feb 22:55:23 22:59:45 52° 74° (ENE) 23:04:10 437.505/2401.250
UKube-1 08 Feb 22:58:24 23:02:32 45° 73° (ENE) 23:06:41 .
Cosmos 2499 08 Feb 22:58:33 23:05:43 33° 275° (W) 23:12:26 435.465 / 435.565
CUBEBUG 1 08 Feb 23:01:55 23:06:08 44° 73° (ENE) 23:10:21 437.445
DX 1 08 Feb 23:07:58 23:12:20 72° 77° (ENE) 23:16:43 434.975-435.025
ANTELSAT 08 Feb 23:09:58 23:14:19 80° 282° (WNW) 23:18:44 437.575/2403.000
SPROUT 08 Feb 23:11:06 23:14:05 19° 68° (ENE) 23:17:04 437.525
TIGRISAT 08 Feb 23:17:18 23:21:37 68° 284° (WNW) 23:26:00 435.000
POPSAT HIP 1 08 Feb 23:23:52 23:27:35 30° 97° (E) 23:31:16 437.405
NANOSAT C BR1 08 Feb 23:29:16 23:33:05 34° 98° (E) 23:36:53 145.865
DUCHIFAT 1 08 Feb 23:31:14 23:35:03 34° 98° (E) 23:38:51 145.980
QB50P1 08 Feb 23:36:24 23:40:25 43° 99° (E) 23:44:25 145.935-145.965
50 SAT 08 Feb 23:54:46 23:57:41 22° 264° (W) 00:00:38 437.505
VELOX 1 08 Feb 23:58:47 00:02:47 32° 262° (W) 00:06:49 145.980
UNISAT 6 09 Feb 00:02:27 00:05:39 20° 291° (WNW) 00:08:53 437.425
ISS 09 Feb 00:13:55 00:16:58 38° 227° (SW) 00:20:00 145.825
AISAT 09 Feb 00:16:05 00:19:23 20° 265° (W) 00:22:42 437.250
POLYITAN 1 09 Feb 00:28:35 00:32:31 40° 287° (WNW) 00:36:27 437.675
QB50P2 09 Feb 00:29:20 00:33:15 38° 287° (WNW) 00:37:09 145.880/145.840
SWISSCUBE 09 Feb 00:29:43 00:30:43 11° 63° (ENE) 00:31:44 437.505
ESTCUBE 1 09 Feb 00:35:00 00:36:50 12° 268° (W) 00:38:40 437.505/2401.250
UKube-1 09 Feb 00:36:49 00:38:47 13° 267° (W) 00:40:47 .
BUGSAT 1 09 Feb 00:37:47 00:41:49 69° 284° (WNW) 00:45:47 437.445
CUBEBUG 1 09 Feb 00:40:18 00:42:36 14° 267° (W) 00:44:55 437.445
SPROUT 09 Feb 00:45:57 00:49:48 32° 262° (W) 00:53:40 437.525
TISAT 1 09 Feb 00:58:51 01:03:04 64° 259° (WSW) 01:07:16 437.305
POPSAT HIP 1 09 Feb 01:00:12 01:03:08 19° 291° (WNW) 01:06:04 437.405
ITUPSAT 1 09 Feb 01:02:59 01:06:38 22° 68° (ENE) 01:10:18 437.325
PHONESAT 2.4 09 Feb 01:05:24 01:08:26 36° 150° (SSE) 01:11:29 2401.200-2431.200
NANOSAT C BR1 09 Feb 01:05:53 01:08:32 17° 292° (WNW) 01:11:11 145.865
CUSAT 1 09 Feb 01:06:48 01:12:57 26° 85° (E) 01:19:18 437.405
DUCHIFAT 1 09 Feb 01:07:51 01:10:28 16° 292° (WNW) 01:13:06 145.980
BEESAT 09 Feb 01:11:47 01:15:47 28° 69° (ENE) 01:19:49 436.000
QB50P1 09 Feb 01:13:45 01:15:48 13° 294° (WNW) 01:17:49 145.935-145.965
JAS-2 09 Feb 01:27:52 01:32:14 23° 93° (E) 01:36:21 435.910
DANDE 09 Feb 01:31:10 01:36:45 23° 82° (E) 01:42:49 436.750
Cosmos 2491 09 Feb 01:36:25 01:43:03 23° 70° (ENE) 01:49:37 435.465 / 435.565
Oscar 19 09 Feb 01:38:16 01:43:12 45° 99° (E) 01:48:04 437.125/150
BEESAT 3 09 Feb 01:51:28 01:53:33 14° 48° (NE) 01:55:37 437.485
Gurwin Techsat 1B 09 Feb 02:00:49 02:05:17 27° 96° (E) 02:09:45 435.225
SWISSCUBE 09 Feb 02:03:07 02:07:52 73° 258° (WSW) 02:12:39 437.505
BEESAT 2 09 Feb 02:13:29 02:15:52 15° 49° (NE) 02:18:16 435.950
YUBILEINY 09 Feb 02:24:19 02:30:22 21° 81° (E) 02:36:26 435.215
ITUPSAT 1 09 Feb 02:39:59 02:44:15 33° 262° (W) 02:48:33 437.325
PHONESAT 2.4 09 Feb 02:42:28 02:45:40 49° 345° (NNW) 02:48:52 2401.200-2431.200
ITAMSAT 1 09 Feb 02:44:47 02:49:37 37° 98° (E) 02:54:25 435.822/435.867
CUSAT 1 09 Feb 02:46:56 02:54:36 63° 281° (WNW) 03:02:40 437.405
BEESAT 09 Feb 02:49:34 02:53:30 26° 264° (W) 02:57:27 436.000
STARS 09 Feb 02:54:55 02:58:26 24° 69° (ENE) 03:01:58 437.465
MOZHAYETS 4 09 Feb 02:55:48 02:58:43 17° 67° (ENE) 03:01:38
KKS-1 09 Feb 03:08:09 03:12:34 66° 76° (ENE) 03:17:00 437.445
DANDE 09 Feb 03:11:25 03:18:47 69° 280° (W) 03:27:16 436.750
JAS-2 09 Feb 03:12:23 03:17:27 35° 291° (WNW) 03:22:11 435.910
Oscar 19 09 Feb 03:18:38 03:22:08 19° 294° (WNW) 03:25:37 437.125/150
BEESAT 3 09 Feb 03:27:46 03:31:34 48° 245° (WSW) 03:35:20 437.485
Cosmos 2491 09 Feb 03:31:52 03:40:31 67° 268° (W) 03:49:10 435.465 / 435.565
Gurwin Techsat 1B 09 Feb 03:40:30 03:45:11 32° 291° (WNW) 03:49:51 435.225
BEESAT 2 09 Feb 03:50:12 03:53:58 42° 245° (WSW) 03:57:43 435.950
AIST 2 09 Feb 04:00:05 04:03:17 21° 52° (NE) 04:06:28 435.215
SO-50 09 Feb 04:15:26 04:18:20 16° 108° (ESE) 04:21:18 436.795
AO-7 09 Feb 04:16:47 04:25:04 64° 104° (ESE) 04:33:15 29.400- 29.500
YUBILEINY 09 Feb 04:17:29 04:26:12 71° 279° (W) 04:35:02 435.215
PHONESAT 2.4 09 Feb 04:20:18 04:23:18 32° 2° (N) 04:26:18 2401.200-2431.200
ITAMSAT 1 09 Feb 04:24:43 04:28:50 24° 293° (WNW) 04:32:56 435.822/435.867
HORYU 2 09 Feb 04:29:36 04:33:36 33° 98° (E) 04:37:37 437.375
STARS 09 Feb 04:31:00 04:34:41 26° 263° (W) 04:38:22 437.465
MOZHAYETS 4 09 Feb 04:31:16 04:35:32 40° 262° (W) 04:39:51
Cosmos 2504 09 Feb 04:33:51 04:41:06 33° 84° (E) 04:48:37 435.465 / 435.565
CUSAT 1 09 Feb 04:36:08 04:38:23 11° 299° (WNW) 04:40:39 437.405
DANDE 09 Feb 04:59:58 05:03:23 13° 300° (WNW) 05:06:56 436.750
M-CUBED/EXP-1 PRIME 09 Feb 05:05:49 05:09:11 61° 288° (WNW) 05:12:45 437.505
CUBESAT XI-V 09 Feb 05:09:03 05:13:30 45° 73° (ENE) 05:17:59 437.345
AUBIESAT-1 09 Feb 05:16:30 05:19:53 55° 289° (WNW) 05:23:27 437.475
STRAND 1 09 Feb 05:31:24 05:31:57 10° 61° (ENE) 05:32:31 437.568
